Hourly Weather Ludwiniec

Today, 20 June, Sunday

Time Temperature Precipitation Wind Pressure Humidity
00:00 +22°C° 0 mm 3 mps 751 mmHg 77%
01:00 +21°C° 0 mm 3 mps 751 mmHg 81%
02:00 +21°C° 0 mm 3 mps 751 mmHg 82%
03:00 +20°C° 0 mm 3 mps 751 mmHg 84%
04:00 +20°C° 0 mm 3 mps 750 mmHg 86%
05:00 +21°C° 0 mm 4 mps 751 mmHg 81%
06:00 +23°C° 0 mm 4 mps 751 mmHg 75%
07:00 +25°C° 0 mm 4 mps 751 mmHg 70%
08:00 +26°C° 0 mm 5 mps 751 mmHg 65%
09:00 +28°C° 0 mm 5 mps 751 mmHg 59%
10:00 +29°C° 0 mm 6 mps 750 mmHg 54%
11:00 +29°C° 0 mm 6 mps 750 mmHg 51%
12:00 +30°C° 0 mm 6 mps 750 mmHg 48%
13:00 +32°C° 0 mm 5 mps 750 mmHg 44%
14:00 +32°C° 0 mm 5 mps 750 mmHg 45%
15:00 +32°C° 0 mm 5 mps 749 mmHg 46%
16:00 +32°C° 0 mm 4 mps 749 mmHg 47%
17:00 +29°C° 0 mm 4 mps 749 mmHg 54%
18:00 +28°C° 0 mm 4 mps 748 mmHg 61%
19:00 +26°C° 0 mm 3 mps 748 mmHg 68%
20:00 +25°C° 0 mm 3 mps 748 mmHg 71%
21:00 +24°C° 0 mm 3 mps 748 mmHg 73%
22:00 +22°C° 0 mm 3 mps 749 mmHg 76%
23:00 +21°C° 0 mm 3 mps 748 mmHg 78%

Tomorrow, 21 June, Monday

Time Temperature Precipitation Wind Pressure Humidity
00:00 +21°C° 0 mm 3 mps 748 mmHg 80%
01:00 +20°C° 0 mm 3 mps 748 mmHg 81%
02:00 +20°C° 0 mm 3 mps 748 mmHg 84%
03:00 +20°C° 0 mm 3 mps 748 mmHg 87%
04:00 +19°C° 0 mm 3 mps 747 mmHg 89%
05:00 +21°C° 0 mm 4 mps 747 mmHg 83%
06:00 +22°C° 0 mm 4 mps 748 mmHg 77%
07:00 +25°C° 0 mm 5 mps 748 mmHg 71%
08:00 +26°C° 0 mm 5 mps 748 mmHg 67%
09:00 +28°C° 0 mm 5 mps 748 mmHg 62%
10:00 +29°C° 0 mm 6 mps 748 mmHg 58%
11:00 +30°C° 0 mm 5 mps 747 mmHg 55%
12:00 +30°C° 0 mm 5 mps 747 mmHg 52%
13:00 +32°C° 0 mm 5 mps 747 mmHg 50%
14:00 +32°C° 0 mm 5 mps 747 mmHg 50%
15:00 +32°C° 0 mm 4 mps 746 mmHg 49%
16:00 +32°C° 0 mm 4 mps 746 mmHg 49%
17:00 +30°C° 0.1 mm 4 mps 746 mmHg 57%
18:00 +28°C° 0.1 mm 3 mps 746 mmHg 66%
19:00 +26°C° 0.1 mm 3 mps 746 mmHg 74%
20:00 +24°C° 0.2 mm 3 mps 747 mmHg 79%
21:00 +22°C° 0.2 mm 3 mps 747 mmHg 84%
22:00 +20°C° 0.2 mm 3 mps 747 mmHg 89%
23:00 +20°C° 0.1 mm 3 mps 747 mmHg 90%

Day after tomorrow, 22 June, Tuesday

Time Temperature Precipitation Wind Pressure Humidity
00:00 +19°C° 0.1 mm 3 mps 747 mmHg 90%
01:00 +19°C° 0.1 mm 3 mps 747 mmHg 91%
02:00 +19°C° 0.2 mm 3 mps 747 mmHg 93%
03:00 +19°C° 0.2 mm 2 mps 747 mmHg 95%
04:00 +19°C° 0.2 mm 2 mps 747 mmHg 97%
05:00 +20°C° 0.1 mm 3 mps 748 mmHg 93%
06:00 +21°C° 0.1 mm 3 mps 748 mmHg 89%
07:00 +22°C° 0.1 mm 3 mps 748 mmHg 86%
08:00 +24°C° 0 mm 3 mps 749 mmHg 78%
09:00 +26°C° 0 mm 4 mps 749 mmHg 71%
10:00 +27°C° 0 mm 4 mps 749 mmHg 64%
11:00 +28°C° 0 mm 4 mps 749 mmHg 59%
12:00 +29°C° 0 mm 4 mps 749 mmHg 55%
13:00 +29°C° 0 mm 3 mps 749 mmHg 51%
14:00 +30°C° 0 mm 3 mps 749 mmHg 51%
15:00 +30°C° 0 mm 3 mps 749 mmHg 50%
16:00 +30°C° 0 mm 3 mps 749 mmHg 50%
17:00 +28°C° 0.2 mm 3 mps 749 mmHg 57%
18:00 +27°C° 0.2 mm 3 mps 750 mmHg 64%
19:00 +26°C° 0.2 mm 3 mps 750 mmHg 72%
20:00 +24°C° 0 mm 3 mps 750 mmHg 78%
21:00 +21°C° 0 mm 4 mps 750 mmHg 84%
22:00 +20°C° 0 mm 4 mps 750 mmHg 90%
23:00 +19°C° 0 mm 4 mps 750 mmHg 88%

23 June, Wednesday

Time Temperature Precipitation Wind Pressure Humidity
00:00 +18°C° 0 mm 4 mps 750 mmHg 86%
01:00 +17°C° 0 mm 4 mps 750 mmHg 85%
02:00 +15°C° 0 mm 4 mps 750 mmHg 85%
03:00 +15°C° 0 mm 4 mps 750 mmHg 86%
04:00 +15°C° 0 mm 4 mps 750 mmHg 86%
05:00 +17°C° 0.2 mm 3 mps 750 mmHg 84%
06:00 +18°C° 0.2 mm 3 mps 751 mmHg 82%
07:00 +20°C° 0.2 mm 3 mps 751 mmHg 80%
08:00 +21°C° 0.1 mm 3 mps 751 mmHg 77%
09:00 +24°C° 0.1 mm 3 mps 751 mmHg 74%
10:00 +26°C° 0.1 mm 2 mps 751 mmHg 71%
11:00 +27°C° 0.1 mm 2 mps 751 mmHg 68%
12:00 +28°C° 0.1 mm 2 mps 750 mmHg 66%
13:00 +29°C° 0.1 mm 2 mps 750 mmHg 63%
14:00 +28°C° 0.3 mm 3 mps 751 mmHg 68%
15:00 +27°C° 0.3 mm 4 mps 751 mmHg 72%
16:00 +26°C° 0.3 mm 6 mps 751 mmHg 76%
17:00 +23°C° 0 mm 5 mps 752 mmHg 77%
18:00 +22°C° 0 mm 5 mps 752 mmHg 77%
19:00 +20°C° 0 mm 5 mps 752 mmHg 78%
20:00 +19°C° 0 mm 5 mps 753 mmHg 81%
21:00 +17°C° 0 mm 4 mps 753 mmHg 84%
22:00 +15°C° 0 mm 4 mps 753 mmHg 87%
23:00 +14°C° 0 mm 4 mps 754 mmHg 89%

24 June, Thursday

Time Temperature Precipitation Wind Pressure Humidity
00:00 +14°C° 0 mm 4 mps 754 mmHg 91%
01:00 +13°C° 0 mm 3 mps 754 mmHg 93%
02:00 +13°C° 0 mm 3 mps 754 mmHg 94%
03:00 +13°C° 0 mm 3 mps 754 mmHg 94%
04:00 +14°C° 0 mm 2 mps 754 mmHg 94%
05:00 +15°C° 0 mm 2 mps 754 mmHg 88%
06:00 +17°C° 0 mm 3 mps 754 mmHg 83%
07:00 +18°C° 0 mm 3 mps 754 mmHg 77%
08:00 +20°C° 0 mm 3 mps 754 mmHg 72%
09:00 +21°C° 0 mm 2 mps 754 mmHg 68%
10:00 +23°C° 0 mm 2 mps 754 mmHg 64%
11:00 +23°C° 0.1 mm 2 mps 754 mmHg 65%
12:00 +24°C° 0.1 mm 2 mps 754 mmHg 65%
13:00 +24°C° 0.1 mm 2 mps 754 mmHg 66%
14:00 +23°C° 0.1 mm 2 mps 754 mmHg 72%
15:00 +21°C° 0.1 mm 3 mps 754 mmHg 78%
16:00 +20°C° 0.1 mm 3 mps 753 mmHg 83%
17:00 +19°C° 0 mm 3 mps 754 mmHg 85%
18:00 +19°C° 0 mm 3 mps 754 mmHg 87%
19:00 +18°C° 0 mm 3 mps 754 mmHg 89%
20:00 +18°C° 0 mm 3 mps 754 mmHg 89%
21:00 +18°C° 0 mm 3 mps 754 mmHg 90%
22:00 +18°C° 0 mm 2 mps 754 mmHg 90%
23:00 +18°C° 0 mm 2 mps 754 mmHg 90%

25 June, Friday

Time Temperature Precipitation Wind Pressure Humidity
00:00 +17°C° 0 mm 2 mps 754 mmHg 90%
01:00 +17°C° 0 mm 2 mps 753 mmHg 91%
02:00 +17°C° 0.2 mm 2 mps 753 mmHg 92%
03:00 +16°C° 0.2 mm 2 mps 754 mmHg 93%
04:00 +16°C° 0.2 mm 2 mps 754 mmHg 94%
05:00 +16°C° 0 mm 2 mps 754 mmHg 91%
06:00 +17°C° 0 mm 2 mps 754 mmHg 89%
07:00 +17°C° 0 mm 3 mps 754 mmHg 87%
08:00 +18°C° 0 mm 3 mps 754 mmHg 83%
09:00 +19°C° 0 mm 3 mps 754 mmHg 79%
10:00 +19°C° 0 mm 3 mps 754 mmHg 75%
11:00 +21°C° 0 mm 3 mps 754 mmHg 70%
12:00 +22°C° 0 mm 3 mps 754 mmHg 65%
13:00 +24°C° 0 mm 3 mps 754 mmHg 59%
14:00 +24°C° 0.2 mm 3 mps 753 mmHg 62%
15:00 +22°C° 0.2 mm 3 mps 753 mmHg 64%
16:00 +22°C° 0.2 mm 3 mps 753 mmHg 67%
17:00 +21°C° 0.1 mm 3 mps 753 mmHg 70%
18:00 +21°C° 0.1 mm 2 mps 753 mmHg 73%
19:00 +20°C° 0.1 mm 2 mps 753 mmHg 76%
20:00 +19°C° 0 mm 2 mps 753 mmHg 79%
21:00 +18°C° 0 mm 2 mps 753 mmHg 83%
22:00 +16°C° 0 mm 2 mps 753 mmHg 86%
23:00 +16°C° 0 mm 3 mps 753 mmHg 87%
Show more

We Need Your Consent

Meteoprog and our Service Providers may store and access personal data such as cookies, device identifiers or other similar technologies on your device and process such data to personalise content and ads, as well as provide social media features and to analyse the traffic.

  • Store and/or access information on your device

    Cookies, device identifiers or other information can be stored or accessed on your device for the purposes indicated above.

  • Personalised ads and content, ad and content measurement, audience insights, and products development

    Ads and content can be personalised based on a profile. More data can be added to better personalise ads and content. Ad and content performance can be measured. Insights about the audience who saw the ads and content can be derived. Such data can be used to develop or improve user’s experience, systems and software.

By clicking ‘I Agree’ you will allow the use of indicated cookies, device identifiers, web beacons or other similar technologies. Your settings can be changed in the browser on your device.

For certain purposes, legitimate interests may be relied on, rather than consent. You can read more about this in our Privacy and Cookie Policy.